Theta_e
321 321 321 321 321 321 321 321 321 321 321 321 321 321 321 321 321 321 320 320 319 320 320 321 321 321 321 321 320 321 321 325 325 325 319 316 335 344 340 341 344 360 357 339 331 324 322 325 326 330 333 332 330 329 337 340 346 339 330 326 322 324 323 329 328 329 330 331 333 336 339 337 333 338 339 345 339 338 335 335 337 339 339 342 344 347 347 348
321 321 321 321 321 321 321 321 321 321 321 321 321 322 321 321 321 321 320 320 319 319 320 320 320 321 321 321 321 322 323 324 326 328 324 333 345 344 343 343 354 356 356 328 322 321 323 326 328 329 330 327 330 328 336 341 343 328 327 324 318 323 326 333 336 336 334 334 337 338 338 339 338 340 339 336 335 334 332 334 336 336 339 343 345 345 346 346
321 321 321 321 321 321 321 321 321 321 321 321 321 321 321 321 321 321 321 320 320 320 319 320 320 321 321 321 322 322 323 327 326 316 327 345 344 349 350 351 354 355 342 320 320 321 325 329 331 330 329 324 327 324 331 336 340 332 331 321 324 325 328 334 335 335 338 338 336 335 337 339 339 344 342 339 333 332 329 330 333 334 335 339 342 344 344 345
320 320 320 320 320 321 321 321 321 321 321 321 321 321 321 321 321 321 321 321 320 319 320 320 320 321 322 322 322 326 326 323 317 320 329 346 347 350 349 354 354 352 327 321 321 323 326 330 331 330 325 322 321 324 324 328 334 332 329 323 324 328 327 332 336 337 337 340 338 337 336 337 340 343 341 339 332 331 332 334 332 333 336 338 340 342 343 344
320 320 320 320 320 320 320 320 320 320 320 320 320 320 321 320 320 320 320 320 320 319 319 320 321 321 322 322 321 326 325 318 314 326 336 347 350 345 352 356 352 329 324 320 319 322 326 330 329 327 323 318 317 321 318 324 329 332 323 325 326 329 326 336 338 338 339 341 340 337 334 339 343 343 341 338 332 327 334 335 336 337 339 339 339 341 343 343
321 321 321 321 321 321 321 320 320 320 320 320 320 320 320 320 320 320 320 320 320 320 319 320 321 322 322 322 324 325 326 304 317 329 353 347 348 349 352 354 350 328 324 319 321 325 328 328 326 322 320 316 313 312 315 324 324 325 327 327 329 328 327 337 339 340 340 338 336 335 340 342 343 340 342 339 336 340 339 338 338 339 341 341 342 341 341 341
321 321 321 321 321 321 321 320 320 320 320 320 320 320 319 320 320 320 319 319 319 320 319 320 321 322 322 319 325 321 319 316 323 341 352 350 349 354 355 349 340 326 323 317 319 322 327 325 323 321 316 313 312 311 316 319 326 323 321 328 329 333 331 336 338 341 339 339 340 342 342 340 339 335 344 339 341 341 341 338 340 342 342 342 341 340 340 341
320 320 320 320 321 321 320 320 320 320 320 320 320 320 319 319 320 320 319 319 319 320 320 320 321 322 322 326 326 320 316 315 331 349 354 350 350 354 347 331 327 326 322 315 314 319 324 321 320 319 314 309 310 312 317 321 323 322 322 326 329 330 334 336 338 338 340 341 344 342 338 339 341 342 341 339 340 339 340 340 341 341 341 341 341 340 340 341
320 320 320 320 320 320 320 320 320 320 320 320 320 320 319 319 319 319 319 319 319 320 320 320 321 322 322 324 326 315 313 325 335 346 344 337 338 342 331 325 326 323 320 316 315 319 322 322 315 314 311 310 311 311 314 318 322 323 324 324 331 329 335 338 338 340 340 343 344 340 338 339 342 346 340 341 340 340 340 340 339 340 340 340 340 340 340 341
320 320 320 320 320 320 320 320 320 320 320 320 319 319 319 318 318 319 319 319 319 319 320 321 321 323 324 327 324 313 320 340 341 343 338 337 339 332 326 326 325 322 317 315 315 320 322 318 315 315 315 312 312 310 315 320 319 327 327 329 331 338 338 339 338 338 339 340 342 336 336 339 344 338 331 341 340 339 340 338 340 341 339 340 339 341 342 341
319 319 319 319 319 319 320 320 320 320 319 319 319 318 318 318 318 318 318 319 319 320 321 321 323 323 327 327 317 312 328 337 344 343 341 338 330 326 324 324 324 319 316 314 317 325 319 318 317 317 313 310 311 310 317 326 327 331 331 332 333 338 340 339 339 340 341 339 342 340 336 339 340 337 334 339 340 339 339 337 338 338 338 339 340 341 343 344
319 319 319 319 319 319 319 320 319 319 319 318 318 317 318 318 317 318 318 318 319 320 321 322 322 328 329 325 318 316 324 329 338 339 335 329 323 321 321 321 320 317 314 313 321 323 320 319 318 315 310 314 309 313 323 337 333 332 334 330 332 335 335 338 337 340 341 339 342 342 334 330 337 332 339 340 338 340 339 338 338 339 342 339 342 342 343 343
319 319 319 319 318 319 319 319 319 319 318 317 317 316 317 317 318 317 318 318 319 319 321 323 324 329 327 322 319 328 332 335 334 331 328 324 318 319 320 319 319 317 318 321 321 322 322 320 319 314 315 312 310 312 329 338 334 333 331 329 329 331 328 339 343 342 339 342 343 340 316 321 331 338 341 341 339 339 341 339 337 336 337 341 343 342 342 345
319 319 318 318 318 318 319 319 319 318 317 317 316 316 317 318 318 318 318 319 320 321 321 324 328 328 327 316 323 330 332 333 331 323 321 320 318 317 318 319 319 318 322 321 321 323 321 321 319 317 317 311 311 321 328 329 331 329 330 327 322 319 320 336 336 340 335 345 344 339 315 321 331 338 340 343 342 338 336 335 338 338 338 342 340 339 342 343
318 318 318 318 318 318 318 318 318 317 316 316 315 315 318 320 319 319 319 320 322 324 324 326 329 329 326 318 327 332 337 330 323 321 321 319 320 317 318 318 316 317 321 320 321 322 322 320 317 313 312 313 313 310 318 323 324 327 318 317 319 313 319 332 339 336 329 342 342 335 321 320 330 335 342 345 345 340 338 336 337 336 334 337 340 338 338 341
317 317 317 317 317 318 318 317 316 316 316 315 314 316 321 320 320 320 321 324 325 325 329 328 327 326 319 314 326 337 326 320 321 324 323 324 323 319 322 319 319 318 318 319 322 322 321 319 313 313 312 313 310 312 314 314 319 320 317 312 313 315 318 327 335 340 340 339 340 333 322 329 332 338 342 345 344 342 338 337 334 337 337 337 341 339 338 341
317 316 317 317 317 317 317 316 316 315 315 314 314 317 320 322 322 323 324 325 327 329 329 328 327 326 315 321 332 323 318 322 324 324 322 324 323 323 322 320 318 319 320 320 319 320 317 313 314 312 313 310 312 313 310 309 309 312 314 312 311 310 310 315 330 339 340 336 330 335 328 327 329 336 341 344 344 342 339 338 336 338 337 337 339 337 338 341
316 316 316 316 316 317 316 316 315 314 313 313 315 322 325 325 325 324 325 328 331 329 330 331 328 321 312 320 315 315 320 321 321 322 323 324 324 323 320 316 316 317 318 315 316 313 314 311 312 308 311 310 310 309 307 304 306 307 313 309 311 312 316 313 313 331 335 333 329 331 327 328 331 334 337 342 343 341 339 340 337 337 337 336 336 337 337 338
316 316 315 315 315 316 316 316 315 313 313 312 318 321 325 326 329 330 326 326 325 325 317 319 318 308 306 313 318 318 320 322 322 322 320 321 323 323 322 320 317 314 311 310 311 311 312 310 310 307 305 307 308 310 310 309 308 307 307 307 308 308 309 310 314 328 326 329 327 326 325 326 331 332 335 339 341 339 339 340 340 337 338 337 337 335 336 338
315 315 315 315 315 315 315 315 313 312 310 316 327 328 328 327 323 318 324 324 318 315 314 315 319 316 315 316 316 321 323 324 317 319 322 323 321 320 318 317 314 314 310 305 308 309 312 305 304 304 307 309 310 310 310 310 309 308 308 308 308 308 310 316 323 327 330 328 325 325 326 327 330 332 335 337 340 339 339 338 339 338 336 337 337 335 336 338
315 315 315 314 314 314 314 313 312 311 309 315 322 323 313 312 308 308 312 315 317 318 316 316 316 315 315 318 320 318 315 316 319 318 320 325 321 317 313 313 310 307 309 309 307 310 309 303 304 307 309 310 309 309 309 309 309 308 308 307 308 308 308 317 324 334 336 331 323 327 325 327 329 334 336 338 336 336 338 338 338 339 338 337 338 338 339 341
314 315 314 314 313 313 313 312 311 310 307 319 319 316 315 315 316 317 314 309 314 317 316 316 318 315 319 319 321 320 319 313 313 316 321 321 317 312 312 311 308 306 309 308 307 304 303 301 305 308 310 309 308 308 308 307 307 309 308 308 307 310 317 328 331 332 337 333 324 326 324 325 331 334 336 337 337 339 341 342 341 340 340 339 338 339 342 341
315 314 314 314 313 312 311 311 310 307 319 323 319 316 314 318 321 323 317 312 311 316 315 315 314 315 316 320 321 321 314 311 309 314 317 319 314 313 312 309 308 309 308 308 304 303 300 304 306 309 308 307 306 307 307 307 308 308 308 307 307 309 307 313 326 330 334 330 324 325 321 325 333 334 333 336 336 339 343 343 342 343 341 340 339 340 342 338
314 314 314 313 313 312 310 310 307 316 322 318 317 315 318 320 322 320 314 309 309 313 315 317 317 317 316 315 321 318 314 313 313 312 321 317 312 314 311 310 308 308 307 308 307 306 305 308 311 308 308 306 305 306 305 306 307 309 308 307 308 307 308 309 320 331 332 331 331 325 321 320 327 327 330 335 336 338 339 339 341 342 344 344 345 343 345 342
314 314 314 313 312 311 310 307 318 319 318 320 317 319 320 324 325 322 312 311 312 312 319 317 318 318 318 321 322 316 316 316 315 318 319 317 313 311 310 313 310 307 308 309 308 307 307 310 311 308 307 307 306 305 305 308 306 307 308 309 309 308 308 315 322 322 320 318 325 324 307 310 322 325 328 332 334 334 337 335 337 339 342 344 343 341 343 344
314 314 313 313 312 309 308 315 320 317 316 315 317 320 323 324 324 324 314 306 304 311 314 308 319 312 323 316 319 319 317 310 317 319 320 318 321 314 312 309 311 306 308 308 308 309 308 310 309 307 307 306 306 306 309 309 306 305 306 310 309 308 309 312 320 316 305 304 319 327 305 303 317 321 324 329 331 331 335 334 336 339 341 341 342 343 343 344
314 313 313 313 312 309 315 315 319 318 314 313 318 323 323 323 330 322 310 306 302 312 308 312 312 313 317 318 318 317 303 307 316 318 317 322 314 319 309 309 310 311 311 311 308 304 309 308 307 308 307 306 306 306 309 309 306 304 307 308 307 307 307 310 311 310 307 312 323 323 314 305 308 320 325 329 329 330 330 333 336 339 340 340 341 341 344 343
314 313 312 311 310 309 313 315 317 314 313 318 322 323 324 327 326 322 309 296 297 313 309 310 311 317 315 316 319 313 311 314 309 313 318 319 318 314 310 309 309 309 310 308 302 307 309 306 306 306 307 306 306 308 310 310 307 308 311 310 309 309 310 311 310 310 310 309 306 311 316 305 305 319 327 326 325 325 327 330 333 338 340 340 341 340 342 342
313 313 312 311 309 309 312 315 319 316 320 321 321 323 323 327 320 310 304 295 309 310 316 309 316 314 313 315 313 314 312 313 308 313 317 317 318 315 309 311 311 310 311 309 305 308 310 310 309 309 307 306 308 309 310 309 306 313 317 315 313 313 311 311 309 309 309 305 301 306 310 301 304 312 321 327 322 324 326 329 332 337 339 340 341 341 342 343
312 312 311 310 310 314 315 317 314 319 321 320 321 324 320 319 314 302 297 292 311 303 310 309 310 308 312 309 310 312 310 311 312 313 315 313 314 314 313 314 311 310 309 311 309 310 310 313 314 310 308 310 309 309 309 310 314 315 315 311 310 310 310 310 309 309 307 300 303 307 308 305 298 311 316 315 321 325 327 331 334 338 340 341 341 341 341 341
311 310 310 310 312 318 316 315 321 322 322 324 323 323 319 314 304 299 293 302 309 308 310 308 307 310 308 307 305 310 310 311 311 312 310 313 311 312 312 310 313 309 308 309 307 309 310 311 311 312 313 311 312 308 310 314 315 313 310 308 308 307 309 308 308 309 300 298 306 309 306 308 297 311 314 325 328 330 329 328 331 333 337 339 340 340 340 341
309 308 309 311 314 317 313 312 319 323 323 322 321 316 310 300 303 295 295 308 300 306 306 306 308 308 308 309 307 308 307 309 311 310 308 308 308 307 308 305 308 302 302 304 303 308 306 308 311 310 315 311 310 308 308 311 313 310 308 308 301 301 301 297 302 297 298 298 306 308 308 304 303 317 322 325 328 330 333 333 331 332 335 338 340 339 341 340
308 308 308 312 313 314 315 320 322 323 322 319 319 312 303 299 294 300 300 304 301 309 306 310 307 307 307 306 305 308 309 305 310 309 310 310 308 309 310 309 310 307 301 305 304 303 305 309 309 310 311 313 312 305 305 305 308 307 305 304 300 297 297 293 297 301 299 302 308 306 312 301 314 320 327 326 329 332 334 334 333 334 335 337 339 340 340 340
308 309 316 319 316 319 321 326 323 325 321 319 316 306 302 295 295 312 303 304 305 310 309 307 307 307 306 304 306 308 304 308 308 308 309 307 306 305 308 310 309 308 306 306 302 303 299 299 305 308 305 312 311 310 310 309 307 307 308 306 303 302 297 294 298 296 298 300 305 312 304 302 305 316 326 329 331 333 336 336 336 336 337 337 338 339 340 341
307 312 320 321 318 320 322 323 324 323 322 317 308 302 296 296 301 301 302 304 306 308 306 308 305 305 305 306 307 308 307 304 308 307 306 306 304 305 306 307 310 309 308 302 305 304 301 303 307 310 310 311 309 312 313 309 308 309 310 310 304 303 309 299 302 301 301 302 301 306 304 312 312 327 329 331 330 332 334 335 336 335 335 335 335 335 337 338
311 323 323 324 323 327 325 324 324 321 320 312 303 299 296 300 299 303 303 308 307 304 305 306 306 304 304 305 307 306 307 305 307 306 306 306 307 305 308 309 308 309 307 302 307 301 303 302 308 310 312 310 311 312 312 313 301 307 308 303 307 312 308 305 304 305 304 301 299 308 306 314 322 324 326 328 328 329 331 331 332 333 333 335 333 334 334 336
320 322 323 324 324 326 327 325 323 320 319 310 302 297 302 304 304 305 309 305 305 306 305 301 303 303 302 302 304 305 306 306 306 305 303 307 304 307 307 308 310 310 310 308 305 309 302 302 307 308 307 310 313 313 313 312 314 309 304 308 313 315 312 306 300 303 300 296 299 303 302 305 308 306 324 325 325 327 328 330 331 332 333 332 331 333 336 337
318 320 320 319 322 325 325 325 321 320 313 306 301 304 307 301 305 305 309 307 306 305 303 302 303 304 303 303 303 305 306 303 304 304 303 305 302 310 308 307 310 309 311 312 307 307 307 301 305 308 310 311 313 314 311 313 314 310 308 314 306 302 301 306 302 296 296 295 298 302 302 304 305 308 316 319 321 323 326 329 329 328 330 331 332 335 337 338
320 318 316 318 323 323 324 325 322 315 308 302 302 300 306 304 308 306 307 306 305 304 302 304 302 305 305 303 304 305 305 301 305 304 301 304 301 307 308 309 307 309 311 311 307 309 308 301 303 309 308 310 311 310 303 308 313 314 314 311 313 309 305 303 304 304 302 297 297 300 302 301 308 311 314 318 321 324 324 326 326 328 329 330 334 334 334 336
314 310 313 320 323 325 326 321 315 310 306 300 302 303 307 304 306 306 307 306 304 303 302 302 304 303 304 305 305 303 305 305 305 305 304 306 303 308 307 309 308 308 310 311 309 311 306 309 299 305 310 309 304 308 305 309 306 307 307 307 308 308 312 309 308 304 300 299 298 297 296 303 311 318 318 319 322 325 325 325 327 328 331 333 335 335 336 338
317 310 312 321 324 327 324 318 309 305 304 306 305 304 303 302 304 305 307 308 307 309 305 303 303 302 304 304 304 306 305 305 305 304 304 305 305 303 309 309 310 308 310 309 309 309 307 306 301 305 304 303 306 310 309 309 311 309 308 307 308 305 303 300 300 307 305 301 296 297 297 306 313 322 322 320 324 325 327 326 326 330 331 335 336 336 338 338
314 305 311 322 325 324 319 308 307 309 305 303 302 303 303 307 304 305 307 309 307 307 310 306 305 303 303 303 305 304 305 305 305 305 306 304 307 307 309 311 311 311 309 306 308 311 311 309 305 302 303 305 307 310 312 312 312 312 311 309 311 309 308 303 295 302 304 304 303 304 299 304 318 323 326 323 325 328 329 328 327 330 334 335 336 336 337 339
308 306 319 322 326 321 311 306 309 306 304 305 306 304 307 306 305 308 306 308 305 308 306 305 305 304 305 304 304 305 306 304 306 304 306 306 307 309 310 310 312 311 311 310 311 310 314 305 302 303 307 308 310 311 312 312 312 309 310 311 310 306 308 306 305 307 303 304 301 302 299 304 322 328 331 331 333 333 335 333 331 332 333 334 335 336 337 337
310 311 313 322 326 323 310 302 303 304 304 306 304 307 309 309 308 307 307 309 307 307 305 305 306 306 305 308 306 304 308 302 307 306 305 307 306 308 309 310 311 309 309 309 308 311 305 309 305 302 300 303 304 307 308 311 311 308 308 311 310 310 310 309 308 309 302 304 302 300 296 304 317 330 332 332 330 329 329 333 335 333 332 333 335 336 337 336
314 316 314 319 325 317 306 309 308 306 305 304 306 304 307 309 311 311 311 310 312 310 309 307 307 308 306 308 306 307 308 306 305 308 307 307 307 308 309 310 311 310 311 316 332 313 307 306 305 298 296 294 294 296 299 302 304 307 309 310 311 309 308 306 302 305 298 307 305 301 301 310 320 327 326 327 328 328 331 333 334 335 334 334 333 335 336 335
309 306 312 315 317 317 315 316 313 310 309 309 305 306 308 307 311 313 313 311 313 312 311 310 311 310 307 307 305 305 306 309 306 306 307 306 307 307 308 310 309 311 320 327 319 313 308 310 308 305 303 300 303 306 306 307 307 304 306 308 308 309 310 308 307 305 301 308 303 306 306 307 312 316 320 322 327 326 329 332 331 332 334 334 335 335 334 334
312 309 308 307 313 313 313 314 312 311 307 313 306 309 307 307 310 311 314 309 311 311 311 310 309 306 306 306 305 305 307 307 309 307 306 306 308 308 307 309 310 318 326 315 318 313 311 305 307 310 307 306 306 306 306 307 304 305 305 305 308 308 309 307 304 303 311 304 298 308 310 304 307 313 316 318 321 326 327 331 332 332 334 334 333 334 332 334
305 312 313 316 307 307 308 310 312 311 312 311 308 311 308 308 309 307 311 312 313 314 308 310 309 308 307 306 307 304 306 306 308 305 307 308 308 308 306 309 311 321 317 312 316 312 307 303 307 306 305 305 305 305 306 306 306 306 306 306 307 308 308 306 306 308 308 303 301 309 310 306 309 313 317 319 322 325 328 331 334 335 334 333 334 334 333 333
312 312 311 316 309 311 311 312 311 311 311 311 310 311 307 307 307 310 310 310 311 311 311 306 308 308 309 311 309 305 308 303 304 308 307 307 307 307 305 307 312 314 313 311 311 319 312 305 307 306 305 304 304 305 305 305 305 305 305 305 306 307 308 307 307 309 308 308 309 310 311 308 312 316 322 325 330 331 333 335 333 332 332 333 333 333 332 332
312 307 310 311 309 305 306 308 310 311 309 313 307 310 308 308 307 310 311 309 307 309 313 308 309 311 311 312 312 307 309 311 310 310 310 310 308 309 307 308 308 312 312 309 310 316 311 308 308 306 305 303 304 305 305 305 305 304 306 306 306 306 307 308 307 309 310 311 310 309 309 309 319 326 327 332 334 333 333 330 332 333 331 332 332 332 331 330
313 317 316 309 304 306 308 306 306 307 306 311 308 309 309 309 308 311 311 314 311 309 311 309 311 311 312 311 310 310 312 311 313 312 313 312 308 310 308 308 312 308 310 310 310 311 309 311 309 306 302 302 304 304 304 305 305 305 305 306 305 305 304 307 307 311 309 307 310 311 307 307 324 329 328 331 331 329 330 331 331 330 330 331 331 330 329 330
316 318 316 314 304 312 304 310 308 306 301 306 309 310 308 309 311 311 309 313 314 314 313 311 312 311 312 310 310 311 313 313 314 315 315 316 316 315 313 312 312 310 309 309 312 308 309 308 305 304 300 301 305 304 304 304 303 301 302 305 307 307 309 310 310 311 311 310 309 305 306 319 321 327 325 327 329 327 330 330 330 331 332 332 331 329 329 330
Wind_Speed
15 14 15 15 14 15 15 16 16 16 16 14 14 13 12 12 12 12 11 11 11 11 11 11 10 10 9 9 8 8 10 8 4 7 8 3 8 8 7 3 8 9 14 10 8 9 8 8 7 6 6 5 2 3 3 3 1 0 4 4 6 5 7 5 6 5 5 6 7 6 4 6 7 6 5 5 4 5 6 5 7 7 8 10 15 17 17 17
15 15 15 15 15 16 16 16 16 16 16 16 15 15 14 13 12 12 12 11 11 11 11 10 10 9 9 8 8 7 9 7 7 6 9 7 7 9 6 9 9 14 14 9 10 9 7 7 6 6 5 5 2 1 2 3 3 4 0 4 3 5 5 3 5 4 2 6 6 4 4 2 6 5 6 5 7 7 6 6 8 9 11 13 15 17 17 17
16 15 16 16 16 16 16 16 16 16 16 16 16 15 15 14 13 12 12 12 11 11 11 10 9 9 8 8 7 7 8 5 6 2 6 7 7 8 7 11 13 13 12 6 8 7 6 3 4 6 4 6 2 1 3 5 5 8 5 3 2 3 4 3 2 3 3 2 5 5 5 2 5 1 5 4 7 6 4 7 8 8 12 14 16 17 17 16
16 16 16 16 16 16 17 17 17 17 16 16 16 16 15 15 14 13 13 12 12 11 10 10 9 8 8 8 6 8 7 7 2 6 7 8 7 8 11 11 12 11 5 5 4 6 3 2 4 5 4 6 2 3 4 6 4 4 5 1 2 2 1 3 3 1 2 2 3 4 5 5 3 2 3 2 6 3 2 4 4 9 13 16 17 17 16 16
16 16 16 16 16 16 16 17 17 17 16 16 16 16 16 15 14 13 13 13 12 11 10 9 9 8 8 5 7 7 6 7 6 4 8 8 8 11 11 11 11 8 4 4 5 5 6 5 5 4 5 4 1 4 3 4 3 4 6 5 1 3 3 6 5 2 2 1 2 4 6 3 3 3 3 3 4 4 2 2 5 9 14 17 18 17 15 16
16 16 16 16 16 15 17 17 16 17 17 16 16 16 16 15 15 14 13 12 12 11 10 9 9 7 7 3 7 5 5 2 3 5 10 9 9 10 10 9 8 6 5 7 6 6 7 6 6 6 4 4 3 5 6 2 3 3 3 5 2 3 5 4 3 3 2 2 1 4 2 1 3 2 1 2 3 4 2 2 5 9 13 16 16 16 16 16
17 17 17 16 16 16 16 16 16 16 16 16 16 15 16 16 15 14 13 12 11 10 9 8 9 8 2 5 5 4 5 6 2 7 13 11 10 10 9 7 7 7 6 6 7 7 8 5 5 3 4 5 2 4 3 2 3 1 6 3 4 6 6 3 3 2 2 2 2 1 0 2 1 4 2 1 2 2 2 2 7 9 12 15 16 16 16 16
18 17 17 17 17 17 17 17 17 16 15 15 14 15 16 16 15 14 13 11 10 10 9 8 7 8 7 6 5 4 2 7 7 6 12 11 11 11 11 10 9 7 7 8 8 8 6 6 5 2 4 5 6 6 4 2 2 4 8 8 2 1 3 4 2 2 3 2 2 1 2 1 2 2 3 0 1 2 6 8 9 10 11 13 14 14 14 14
18 17 17 17 17 17 18 18 17 17 17 15 14 14 15 16 15 14 12 11 9 9 9 7 7 6 2 5 6 8 5 5 4 9 14 14 13 13 13 8 9 8 7 7 7 5 6 4 3 3 4 4 3 5 1 5 5 2 4 10 7 3 3 1 1 2 2 2 1 2 2 2 0 2 4 1 1 3 8 11 11 12 12 12 13 13 13 12
17 17 17 18 18 18 18 18 18 18 17 16 15 14 13 16 14 13 11 10 9 8 8 6 6 6 6 6 8 5 6 4 6 9 13 12 12 12 12 6 10 8 8 7 6 6 6 3 4 2 5 6 3 3 5 4 5 3 4 6 8 6 5 5 5 4 3 1 1 3 1 2 1 3 3 3 1 5 10 11 11 11 12 10 11 11 11 12
18 19 19 19 19 18 18 18 18 18 17 16 16 15 14 15 13 12 11 10 9 8 7 6 5 6 6 6 8 3 3 3 5 7 10 10 11 11 10 8 9 8 8 7 7 6 2 0 1 2 5 3 4 1 4 5 1 2 5 6 7 7 4 5 4 4 4 2 3 3 4 3 3 4 3 4 4 6 9 11 10 8 6 7 9 9 9 10
18 19 20 20 19 19 18 19 19 19 18 18 16 16 15 14 13 11 10 9 8 8 8 8 8 5 6 6 7 4 2 2 6 6 8 10 8 6 5 8 8 8 8 7 7 4 1 2 4 4 5 5 4 2 2 1 3 4 7 5 6 7 7 7 5 5 6 2 2 1 3 7 6 3 1 2 3 6 9 10 10 11 3 3 6 7 7 9
20 20 19 20 19 18 19 20 20 20 19 17 16 16 14 13 11 9 8 7 9 8 8 7 7 5 5 6 5 7 1 3 6 7 7 6 4 3 4 4 7 4 2 5 5 2 2 2 4 6 3 6 5 5 3 4 2 5 5 4 6 7 5 5 4 6 7 3 3 3 2 6 4 1 2 3 5 7 10 8 11 10 4 4 5 5 7 7
21 21 21 20 19 19 20 20 20 19 19 17 16 15 12 10 6 5 6 6 4 9 9 9 6 5 5 2 6 4 2 4 7 8 8 6 7 6 4 5 4 4 3 4 3 2 1 2 4 6 4 6 2 1 6 3 5 5 3 7 3 3 3 4 6 7 6 5 6 4 0 4 4 2 2 4 5 8 10 14 11 8 5 5 8 7 5 8
21 23 22 21 20 20 21 20 18 18 18 17 15 12 10 5 1 5 6 7 5 9 10 9 5 4 5 5 4 6 5 4 8 8 8 9 6 7 6 5 6 5 2 3 2 1 1 3 5 7 4 1 5 7 5 3 5 4 5 6 6 3 4 7 6 7 4 5 5 5 3 4 3 1 3 4 5 7 7 15 11 12 11 7 5 7 7 9
23 23 23 22 22 22 21 19 19 19 18 16 13 9 7 5 7 8 9 5 8 11 8 6 5 5 9 4 5 7 6 6 8 9 9 7 6 4 7 6 5 5 4 3 3 2 3 4 7 4 5 6 8 6 4 4 2 4 8 4 4 2 6 7 4 5 3 4 5 6 3 4 4 3 3 3 4 5 5 10 16 14 14 11 6 6 8 8
22 23 22 22 22 22 22 19 19 18 18 14 12 5 3 6 9 10 10 10 7 5 4 2 1 4 3 4 4 5 6 5 6 7 8 6 5 5 8 7 6 6 4 3 2 4 3 7 3 6 6 7 4 4 5 5 4 3 1 3 6 5 4 2 7 3 6 6 4 6 6 3 3 4 5 4 5 6 5 6 17 12 11 9 7 8 6 6
24 22 22 21 22 22 22 20 19 18 16 12 9 6 3 5 11 14 8 6 2 3 4 3 4 4 4 3 5 5 4 6 6 6 7 6 4 7 5 5 4 5 6 6 4 7 4 6 3 7 4 7 6 7 5 5 3 3 2 2 2 1 1 4 2 5 5 5 5 5 4 1 2 1 2 3 3 4 5 3 13 11 11 11 8 8 8 7
25 25 22 22 22 22 23 21 19 18 15 11 7 1 2 4 6 6 3 5 4 4 5 5 6 4 5 7 3 1 4 5 6 8 8 9 6 5 4 1 4 9 9 8 7 8 5 6 4 7 9 8 8 8 6 5 4 5 6 5 3 4 4 5 4 2 5 4 4 4 2 2 1 1 1 3 3 3 3 3 5 10 8 10 9 9 8 7
25 25 24 22 22 23 23 21 19 16 12 6 5 5 5 5 5 4 6 6 8 9 8 1 5 3 5 4 4 7 5 6 8 6 8 7 8 8 7 6 6 8 5 8 8 10 3 8 8 10 9 9 5 3 5 6 6 7 6 5 3 3 3 4 3 3 2 5 2 7 3 6 1 1 3 2 2 3 4 5 5 8 9 9 10 10 10 9
25 25 24 22 22 24 24 21 20 17 6 6 5 6 4 5 8 2 7 7 5 5 6 6 7 6 3 4 6 6 6 8 6 9 8 8 7 9 7 8 7 7 7 1 2 6 6 9 11 12 11 6 1 4 6 8 7 8 7 6 4 2 3 3 1 1 2 6 6 4 5 2 1 1 1 2 3 3 3 4 4 4 8 9 10 11 12 10
24 23 22 23 22 22 24 23 21 15 6 5 4 5 3 6 5 4 4 4 3 5 6 6 0 6 4 7 2 2 5 6 9 9 6 9 8 10 10 9 7 6 7 6 5 6 8 11 10 11 7 5 4 5 6 8 9 8 6 5 5 1 7 4 2 2 4 5 6 4 4 3 3 2 3 1 2 2 3 2 1 3 4 6 9 10 10 10
24 23 23 23 24 23 24 25 18 12 4 4 5 2 4 4 4 3 5 7 9 5 6 7 7 8 7 4 5 6 7 8 10 11 10 10 8 11 5 8 7 2 7 8 7 6 8 9 12 8 7 7 7 8 7 8 8 7 6 6 7 4 4 5 3 5 4 4 3 3 2 3 3 2 2 2 3 3 1 1 2 2 4 6 7 9 9 12
24 26 23 23 25 25 26 25 22 7 3 6 6 3 4 4 5 3 6 6 6 4 6 5 6 4 7 3 8 11 10 7 6 13 11 11 10 6 7 8 5 5 7 9 9 7 4 8 4 5 6 8 9 9 10 7 8 7 7 5 6 4 1 7 5 4 3 4 0 2 2 2 2 1 3 5 2 3 2 2 2 4 4 3 3 4 7 11
24 24 25 25 26 25 25 24 5 1 6 5 5 2 3 5 5 5 7 6 6 4 5 3 3 5 3 3 8 10 7 1 7 5 13 13 9 5 6 2 5 6 4 3 6 8 9 3 4 7 8 9 9 9 11 9 8 5 7 7 7 5 3 3 6 7 4 6 6 5 6 3 4 3 1 2 3 4 4 3 4 3 2 3 4 6 7 8
20 21 25 24 26 25 25 6 4 7 9 3 4 3 4 6 3 4 5 5 5 6 5 7 6 6 4 7 8 4 3 6 6 4 10 10 7 7 3 7 5 1 2 4 5 4 4 6 6 7 8 9 10 8 9 8 7 7 4 4 4 4 2 2 3 5 7 4 2 5 9 2 5 3 1 0 1 1 1 4 4 3 3 4 4 4 4 5
19 18 18 20 22 22 11 2 6 9 7 5 3 3 5 5 1 6 5 4 7 6 8 6 6 4 4 8 9 6 10 8 5 6 8 5 9 4 9 4 5 5 3 3 4 6 5 5 6 6 8 9 8 9 9 12 7 3 5 3 2 5 6 4 4 7 6 1 5 4 5 7 4 3 1 1 1 1 1 1 1 1 3 4 4 4 5 5
20 18 16 16 15 11 6 9 9 6 3 3 3 4 5 3 3 4 5 5 2 2 5 6 3 2 4 6 8 9 8 9 9 8 5 6 7 7 8 4 4 2 3 4 5 9 5 6 7 9 9 8 10 3 10 9 9 6 3 1 2 4 2 4 7 5 3 5 5 4 2 7 2 6 3 3 3 2 3 3 3 4 2 1 3 3 4 6
19 18 16 14 16 15 6 5 6 6 3 2 4 4 3 2 6 5 4 7 3 3 4 5 0 5 5 6 9 7 4 4 5 8 6 4 8 5 7 7 6 6 4 7 6 7 3 1 4 3 8 7 8 7 3 6 10 6 4 1 2 2 4 4 6 3 2 6 6 4 2 8 3 3 5 4 2 4 4 3 6 6 6 3 0 2 3 4
19 19 17 13 13 5 4 5 10 6 4 4 5 5 2 5 5 6 4 6 4 5 4 4 6 7 9 9 8 9 9 5 2 6 8 6 9 6 5 3 6 6 7 7 7 4 3 1 1 5 3 9 7 7 2 1 4 7 4 5 5 4 2 4 4 4 4 8 6 4 4 5 5 4 2 2 4 5 3 4 4 5 6 6 3 1 0 3
22 19 15 10 6 3 3 6 2 3 2 4 6 6 5 6 6 4 7 3 3 5 3 6 7 4 10 11 9 10 9 7 8 8 8 5 8 9 5 7 6 7 7 6 7 7 6 6 5 3 1 3 4 7 4 2 4 6 5 6 3 4 4 5 3 3 7 7 6 1 5 3 9 4 1 6 5 4 2 4 4 5 6 6 4 3 1 1
23 21 15 10 7 4 7 2 4 3 4 8 9 6 7 7 4 8 3 5 7 6 5 6 5 6 8 7 8 9 10 10 8 9 8 9 8 8 9 8 7 7 9 7 8 7 9 7 5 5 3 6 7 6 6 6 6 8 7 6 7 4 5 6 5 8 9 3 5 1 2 7 7 7 4 5 3 4 4 3 4 5 6 6 5 4 3 1
24 24 20 11 8 7 9 9 6 6 8 9 6 7 8 7 8 9 7 3 2 3 5 3 4 5 3 6 9 7 5 9 11 10 10 6 8 9 7 10 2 7 8 6 3 5 5 6 8 6 6 7 7 9 9 8 8 8 8 7 6 6 5 5 6 2 7 4 2 2 2 8 5 4 3 4 4 4 4 3 3 4 5 5 5 4 4 3
25 24 9 5 9 8 5 3 3 4 5 6 8 8 9 8 8 6 5 6 4 3 2 2 2 4 5 8 7 10 8 8 7 8 10 7 10 9 9 11 8 8 9 2 9 4 6 9 11 11 7 9 7 9 8 5 7 6 5 5 6 5 5 5 5 6 1 3 4 2 6 2 4 4 2 5 4 3 4 3 3 3 3 3 3 4 4 4
28 20 6 3 6 9 10 8 6 6 5 7 9 9 11 10 7 4 7 5 4 2 4 3 6 5 8 10 2 7 6 7 10 8 10 9 9 10 9 10 12 10 5 8 4 4 7 5 9 2 6 5 6 2 4 3 4 2 3 3 7 7 2 7 6 7 4 2 4 6 3 3 3 2 4 4 4 4 4 4 3 3 2 2 2 4 4 4
18 1 2 4 3 2 5 4 5 6 5 9 9 10 12 8 5 6 0 4 1 5 3 5 7 8 7 8 8 9 6 6 10 8 8 11 8 10 9 4 9 12 7 8 5 7 6 7 9 6 4 5 1 3 4 4 5 5 5 7 3 5 6 3 3 3 5 6 4 3 4 7 6 6 5 5 5 5 4 3 2 3 3 1 3 3 4 4
6 7 4 3 2 2 1 4 4 6 6 9 10 11 10 6 2 2 4 2 5 5 5 8 8 8 8 9 9 13 8 7 7 8 8 8 9 11 7 7 4 9 11 9 4 5 6 4 5 8 8 3 1 2 2 4 6 5 7 5 4 1 5 5 4 4 6 6 3 2 3 3 5 3 6 7 6 6 5 3 2 3 2 2 3 3 4 4
9 4 4 6 7 2 1 4 7 5 8 9 11 11 3 6 3 3 2 2 4 3 5 7 1 4 5 7 9 11 10 9 9 10 8 10 4 7 12 8 8 8 8 7 9 6 5 5 8 3 4 7 5 5 6 3 2 8 5 4 5 3 5 3 5 6 4 4 1 4 1 1 5 4 6 7 6 6 6 4 3 3 3 2 3 3 3 2
5 4 2 6 3 5 5 4 5 7 9 9 9 10 7 7 5 1 2 3 2 4 6 4 7 4 5 7 0 6 9 11 8 9 9 8 10 8 9 7 7 6 6 7 9 2 4 7 6 6 6 7 7 7 9 6 4 2 5 5 2 5 1 4 1 4 5 2 6 5 5 4 1 6 4 6 5 6 6 5 4 3 2 2 3 2 3 3
5 5 3 3 2 2 1 4 5 7 8 10 8 7 4 6 4 2 2 3 2 5 5 4 4 5 5 5 2 5 8 9 6 6 10 7 10 7 7 6 4 8 8 10 6 2 4 1 4 8 5 5 8 8 8 4 7 7 7 6 4 2 1 4 2 4 5 4 2 5 1 4 6 4 2 4 6 6 6 5 4 3 3 3 3 3 2 3
3 4 3 2 2 2 4 5 7 8 8 5 4 3 1 5 2 4 3 2 5 4 7 5 4 6 2 3 9 3 4 7 6 6 8 7 9 7 10 8 7 8 8 8 7 6 5 6 7 6 7 9 2 4 6 7 7 4 5 5 3 4 6 6 4 2 3 4 1 4 3 5 6 3 2 2 5 5 5 5 4 4 3 3 2 2 3 3
6 4 5 3 2 3 5 6 5 3 5 7 4 5 2 1 7 6 5 4 6 5 5 6 8 8 8 9 7 1 6 6 8 8 7 9 11 11 7 8 9 11 10 9 7 6 4 1 6 5 2 5 7 3 3 4 4 6 6 5 4 4 3 5 5 4 5 1 4 3 7 6 5 5 2 3 5 5 5 4 4 4 3 2 2 1 2 2
4 6 4 1 2 4 5 6 2 5 8 1 4 5 2 5 5 1 6 5 8 5 6 6 7 7 10 9 5 7 6 7 6 9 6 9 7 6 7 8 8 12 10 6 5 4 0 5 6 2 1 3 3 3 2 2 3 8 8 6 4 8 5 6 4 2 5 3 6 3 6 6 5 4 4 4 4 5 3 3 2 3 2 1 1 1 2 3
5 5 1 3 2 5 5 6 6 7 7 3 6 2 4 4 4 5 8 5 6 4 7 6 5 10 7 2 6 8 4 7 9 8 7 6 4 7 7 8 11 8 11 8 8 10 7 4 5 4 5 5 6 5 6 4 7 8 7 7 8 4 3 3 3 1 8 4 5 5 7 6 5 5 4 5 6 5 6 4 1 2 2 2 1 1 2 3
6 3 4 2 4 5 7 3 5 4 5 6 4 8 7 7 6 7 5 6 4 7 5 8 9 3 6 4 7 8 6 9 4 8 7 3 2 4 5 9 10 8 5 7 5 10 7 4 6 7 7 6 6 6 5 8 10 8 5 4 8 10 8 7 7 5 6 3 3 5 3 8 6 6 6 6 6 5 4 4 3 1 1 1 1 1 2 3
4 4 2 4 2 4 2 1 4 6 4 5 7 7 5 6 6 7 6 8 6 5 7 8 6 6 9 8 9 10 11 9 10 1 6 7 5 4 3 8 6 4 5 0 6 9 3 3 7 6 7 6 5 5 2 7 3 8 8 9 9 9 9 9 5 3 6 5 5 5 5 2 6 8 6 6 7 7 7 6 5 4 3 1 0 1 3 2
4 4 4 2 2 4 1 1 3 4 5 2 6 2 8 9 2 5 7 7 6 6 6 8 8 9 9 10 11 11 11 11 11 11 9 9 3 3 4 7 6 3 8 6 7 5 4 7 7 6 7 6 4 3 3 4 8 9 6 9 9 9 8 10 7 4 5 1 7 5 5 4 2 5 5 4 5 6 4 5 4 3 2 0 1 2 2 2
3 3 3 3 4 0 4 4 2 3 3 4 5 1 7 7 7 7 7 8 2 4 7 5 9 12 10 7 5 7 8 11 9 11 11 7 4 7 7 7 7 7 9 7 6 7 6 8 7 8 3 1 0 1 1 4 6 4 7 7 10 11 10 11 11 4 4 6 3 7 3 3 2 3 3 1 2 4 4 4 2 3 2 1 2 2 3 3
3 4 2 1 5 2 5 6 5 5 6 5 5 5 9 9 10 7 5 2 6 6 6 7 7 5 6 4 7 8 7 8 11 11 9 8 10 8 8 9 5 8 9 7 8 1 6 2 4 5 3 3 3 2 3 5 4 6 6 5 7 9 11 12 11 6 8 7 2 3 1 5 2 2 4 5 3 3 5 4 3 3 2 1 2 2 3 3
3 5 1 1 6 8 6 5 5 5 8 4 6 8 8 8 10 5 6 7 7 7 3 9 6 5 7 7 7 9 6 5 7 5 4 8 8 8 9 10 7 10 9 10 9 4 6 5 5 5 6 4 3 4 5 6 5 7 5 4 5 7 8 10 9 5 6 4 4 2 4 7 4 6 6 6 5 4 4 4 4 3 2 2 2 2 2 4
3 2 4 6 7 3 3 6 6 6 7 6 7 6 7 8 9 2 7 6 9 7 2 4 5 7 5 5 7 9 2 6 7 8 8 7 6 4 6 9 11 13 12 9 8 6 9 3 5 5 7 5 5 6 6 5 7 8 6 7 8 8 9 8 9 7 9 8 6 5 6 7 6 6 7 5 5 5 5 5 4 4 4 3 2 2 3 4
4 2 2 4 6 1 5 2 5 4 8 7 4 2 4 4 2 3 7 8 9 8 3 4 6 7 4 6 4 3 9 9 10 10 8 9 8 9 6 3 11 12 11 10 8 9 8 6 7 7 7 4 5 6 5 7 7 9 11 11 9 9 7 5 7 7 11 8 6 8 6 6 8 6 6 6 5 6 4 5 5 4 3 3 2 2 3 4
Wind_Direction
355 353 351 348 345 343 340 338 337 335 333 333 332 331 330 330 329 329 330 324 322 321 322 322 321 321 319 317 312 310 310 290 273 239 222 259 70 110 143 103 157 155 171 187 161 173 179 193 196 175 224 241 172 246 54 236 9 158 12 331 60 72 89 33 59 78 215 134 123 149 154 145 140 155 135 171 147 109 121 115 110 89 73 94 113 127 136 142
354 350 348 345 343 340 338 337 336 334 333 332 331 329 328 327 327 326 324 323 321 318 320 320 319 317 320 312 299 325 300 283 257 240 241 81 129 153 172 163 159 166 195 182 183 188 192 192 192 194 233 240 131 285 223 116 213 81 279 23 43 8 43 334 32 35 87 93 112 128 159 171 112 162 158 186 146 154 139 128 128 103 105 116 128 134 142 149
351 348 345 343 342 339 337 336 334 332 331 330 328 327 325 323 321 320 319 319 318 319 315 316 319 317 310 310 302 295 298 257 243 182 109 115 137 173 176 155 168 186 210 181 195 206 216 203 179 216 218 282 180 47 236 118 221 79 71 16 38 264 335 4 324 50 54 95 136 149 143 134 124 183 146 214 156 168 140 135 142 132 132 138 140 145 148 155
350 347 345 343 341 338 336 333 332 331 329 327 325 323 321 320 318 318 315 315 314 314 314 310 315 316 310 303 320 295 270 274 170 72 127 137 148 150 156 167 173 196 226 214 190 231 238 208 185 243 269 259 90 262 256 101 261 110 141 358 9 24 233 62 3 51 62 75 126 145 150 151 128 108 207 182 172 157 145 122 129 140 146 146 151 151 155 158
348 347 345 342 338 335 333 333 331 328 327 324 322 320 318 317 316 314 314 309 310 307 308 309 308 309 306 303 276 266 276 253 85 93 122 145 145 158 161 172 185 192 222 147 188 221 215 186 197 233 268 312 352 226 68 111 30 164 82 124 321 6 346 39 24 67 76 85 119 158 172 110 128 187 200 212 273 109 57 121 122 141 149 155 157 157 160 163
346 343 341 337 332 331 333 331 327 328 325 323 320 318 316 315 313 312 310 307 303 302 302 302 302 304 306 356 274 269 264 336 67 103 139 155 152 167 168 174 205 231 172 175 194 183 190 184 228 225 244 277 16 332 58 35 155 108 122 137 160 263 300 35 49 91 163 117 166 166 72 147 202 127 58 243 264 65 82 298 144 145 154 158 158 159 164 167
343 342 339 336 331 332 330 325 326 325 323 320 318 315 312 310 309 307 304 302 296 295 294 296 297 294 320 262 254 273 268 83 159 110 142 155 159 155 165 173 206 197 191 182 199 194 200 201 238 277 293 256 144 333 37 321 166 225 124 159 195 214 261 306 3 126 132 100 72 10 270 252 292 206 46 277 242 288 91 183 152 145 150 155 162 169 168 170
342 340 336 333 331 328 326 327 325 319 315 313 309 306 308 305 305 302 298 294 293 286 288 289 294 285 288 254 245 225 236 66 89 116 138 141 154 150 160 176 193 191 200 208 192 208 199 217 252 343 248 326 39 308 25 254 165 189 139 155 163 298 295 303 332 118 139 130 100 189 212 153 347 356 293 203 342 36 119 150 142 141 157 162 164 170 171 170
340 336 332 329 328 328 325 322 321 319 317 311 305 302 302 304 300 296 292 287 281 282 276 280 270 284 289 286 266 285 92 61 57 135 146 158 160 160 172 169 195 204 210 211 215 230 223 157 256 294 15 299 55 312 37 278 128 288 93 149 145 189 196 199 145 160 147 137 197 237 173 167 250 302 257 306 328 124 138 148 147 155 164 169 169 169 171 175
335 333 329 330 326 325 321 319 321 321 316 309 307 304 300 301 297 290 285 279 272 267 268 264 262 261 247 261 273 271 77 76 130 140 159 163 158 165 193 198 184 207 207 200 198 216 232 69 321 25 293 252 296 348 317 280 74 273 149 148 153 162 164 180 183 169 174 154 164 260 241 166 140 276 174 158 89 136 146 153 142 162 162 173 168 169 173 176
337 335 332 329 325 323 320 319 321 320 315 311 309 306 302 301 293 285 276 268 260 255 249 245 223 226 247 256 293 26 103 153 135 148 157 162 164 179 193 196 196 202 208 184 200 211 67 66 3 287 232 25 288 231 274 44 298 204 135 140 144 154 155 170 194 162 165 182 220 249 252 223 203 211 304 110 158 161 151 152 151 140 155 167 173 170 173 177
333 333 333 329 326 321 319 322 324 321 318 314 312 308 304 300 291 278 264 253 245 236 232 228 216 248 267 263 270 42 167 66 159 149 162 168 177 199 193 196 199 203 203 180 201 166 313 9 271 277 336 326 263 229 71 43 213 144 177 149 144 170 160 171 182 180 198 185 212 261 289 256 191 257 93 198 159 177 152 153 132 103 183 180 204 180 184 176
335 334 331 329 324 322 324 326 325 323 319 317 315 312 307 302 290 269 248 243 233 225 217 204 213 247 276 247 80 76 101 119 151 155 164 184 142 149 180 200 199 233 291 255 160 175 241 273 287 269 346 295 321 335 66 242 137 164 203 240 143 196 149 184 154 176 206 141 186 223 225 96 63 66 192 209 191 171 139 124 136 155 122 42 319 224 188 183
335 335 333 330 328 326 328 327 326 323 321 322 322 315 311 306 296 247 209 223 171 204 199 198 232 240 257 1 95 68 99 125 143 167 178 168 165 132 156 182 201 226 211 349 40 7 256 280 271 289 281 281 350 90 242 181 196 213 159 231 249 115 329 167 182 166 204 146 202 153 302 110 137 99 186 201 202 184 157 148 154 134 110 164 215 237 225 196
335 335 335 332 329 330 330 329 327 325 324 329 322 319 312 319 86 145 159 169 171 161 175 193 226 238 229 94 106 78 95 171 176 187 178 180 165 147 163 161 196 204 222 283 331 54 319 259 257 243 216 189 263 253 238 213 186 197 50 268 154 129 220 151 193 186 223 151 208 227 269 81 107 41 144 182 199 202 195 134 145 150 181 197 227 214 190 214
335 336 335 333 331 332 332 331 331 330 329 329 322 317 352 90 105 125 155 138 145 159 173 210 195 253 285 150 100 148 183 195 198 184 181 209 189 152 143 166 170 189 221 242 263 264 250 268 267 346 298 222 237 243 210 241 201 170 201 203 62 342 147 145 243 181 264 143 186 198 308 167 131 101 116 145 186 203 219 141 135 170 182 186 196 222 221 207
335 334 334 332 331 331 333 332 333 333 333 328 314 272 331 88 119 128 127 147 162 194 225 301 164 222 286 70 146 204 167 154 90 167 177 217 240 116 148 157 179 180 195 236 231 224 188 241 154 235 230 271 289 284 242 210 192 211 326 329 45 343 348 100 150 178 172 223 169 194 232 49 49 103 104 153 187 194 199 163 127 179 176 165 197 214 226 227
336 334 332 331 330 331 333 332 333 335 333 326 307 356 126 145 138 135 151 187 160 214 228 259 273 252 178 161 202 130 64 141 177 145 173 174 225 170 176 170 129 162 170 181 168 228 166 234 210 257 215 220 228 234 240 208 210 118 163 231 145 293 113 15 326 137 199 189 246 161 250 229 239 202 143 126 166 186 212 220 138 179 170 178 193 211 223 229
336 334 332 331 329 330 332 333 332 336 334 318 297 268 65 192 212 260 200 161 198 188 201 161 196 247 45 151 105 131 139 91 122 161 152 171 187 192 198 157 179 160 178 213 156 225 168 253 214 245 230 213 217 235 252 5 10 337 337 347 322 319 30 16 25 140 235 190 207 192 29 330 236 90 111 146 159 207 196 183 145 159 186 179 189 208 210 217
335 333 332 330 329 329 331 331 331 332 331 274 197 196 190 204 200 167 199 218 243 274 321 183 236 299 233 191 170 74 96 165 169 184 146 161 166 182 196 204 176 227 206 210 141 218 202 226 217 220 221 220 212 271 296 310 327 307 284 284 323 315 81 79 72 25 286 256 86 74 218 244 226 130 75 104 163 214 203 206 188 168 178 194 193 208 205 198
334 333 331 329 329 329 329 330 329 329 304 268 267 242 301 7 315 14 343 281 247 235 262 259 256 271 336 59 131 176 168 170 233 162 174 166 187 185 175 200 195 204 201 219 194 115 221 233 226 229 228 233 241 242 260 276 276 289 292 288 314 260 69 52 50 76 199 255 81 154 205 203 304 20 96 140 236 210 211 208 198 186 176 191 208 206 196 192
334 332 331 330 328 328 327 328 325 323 257 266 242 268 53 31 11 359 295 292 237 229 237 249 313 254 236 227 222 315 257 174 184 164 136 193 174 222 141 221 199 221 139 176 183 180 212 227 228 230 245 254 246 251 262 271 274 265 271 292 284 76 103 106 127 191 152 248 112 184 177 88 45 45 84 230 249 16 32 353 293 222 208 198 200 200 185 180
333 332 332 331 329 326 328 323 319 321 246 238 261 274 52 25 334 307 256 272 275 175 227 217 217 237 219 186 212 196 214 195 179 177 175 207 183 236 152 213 206 148 169 197 210 187 217 212 225 225 220 219 215 232 241 243 255 255 243 223 236 91 246 174 89 162 176 282 91 182 231 85 108 107 83 19 309 346 342 340 275 255 236 224 217 207 200 191
333 334 332 332 329 327 323 324 311 272 250 317 277 13 51 334 324 273 235 285 319 184 216 186 237 228 203 197 167 188 208 177 205 174 165 192 209 181 231 228 223 212 211 202 241 259 284 52 19 201 173 210 215 208 219 227 225 216 248 277 259 221 34 344 158 151 176 174 221 207 210 146 49 169 191 154 214 270 258 280 228 211 227 246 259 237 216 218
332 334 334 331 331 324 321 317 271 332 328 269 224 97 347 324 307 273 278 267 213 203 115 172 221 225 128 61 158 197 202 139 229 134 167 198 185 171 226 207 259 212 234 186 242 252 252 153 131 161 192 203 217 206 212 223 237 211 214 249 291 8 307 92 131 174 209 192 183 242 255 186 114 103 357 55 177 207 194 245 245 249 221 219 240 227 220 234
328 332 334 330 330 327 310 297 113 338 309 285 86 109 332 324 307 262 270 278 253 130 172 188 173 146 148 162 159 213 181 210 160 141 173 203 205 260 106 219 232 333 105 219 246 277 45 108 200 207 194 202 211 219 199 221 249 247 119 195 269 281 303 187 198 258 269 305 234 240 283 160 193 136 29 69 258 171 139 234 262 260 267 257 240 240 234 222
324 326 328 329 331 337 320 126 352 297 275 125 82 353 324 317 17 212 266 211 243 123 177 72 201 108 263 144 172 171 212 153 128 133 179 169 206 166 261 138 186 235 264 301 236 168 181 165 179 212 202 202 204 222 177 214 250 206 85 143 232 232 237 234 250 256 310 48 131 242 254 300 182 98 152 281 244 39 247 161 259 261 259 254 243 234 227 233
320 323 325 325 325 328 285 313 304 282 342 62 354 322 332 330 179 236 260 268 178 143 153 158 10 122 250 158 197 217 35 117 179 162 188 163 223 177 244 274 270 69 182 233 265 98 198 164 195 182 197 193 202 197 153 202 239 49 67 95 213 244 281 256 252 270 318 277 230 174 239 249 246 129 183 191 193 121 77 31 50 38 19 237 248 236 215 232
318 320 324 324 317 296 262 239 290 273 73 15 327 321 320 151 220 267 282 269 86 202 2 139 220 190 160 158 199 225 206 197 287 117 146 157 219 310 224 242 255 284 274 270 316 129 121 263 156 235 215 194 72 70 152 187 235 109 76 103 128 202 231 246 254 254 224 271 261 164 170 294 75 120 163 150 268 133 101 68 57 37 42 45 13 233 221 206
317 319 321 325 307 200 201 215 237 256 331 318 303 303 240 208 219 228 213 247 123 166 189 70 213 162 171 184 197 192 221 178 50 136 170 198 179 219 270 338 282 252 244 213 251 303 68 144 303 258 286 32 87 74 63 148 50 109 175 180 180 212 222 240 269 280 264 243 252 107 252 293 290 146 132 206 70 43 95 100 68 52 43 47 44 346 290 199
317 315 315 318 290 327 301 248 183 246 253 298 289 262 237 213 245 267 229 53 246 83 165 170 162 164 186 201 198 182 223 195 170 167 162 190 179 212 232 220 228 250 252 224 227 192 185 161 203 177 263 139 125 117 92 144 151 199 193 216 198 186 222 225 226 234 258 254 100 267 275 211 274 123 263 94 98 78 32 74 48 24 39 42 35 21 33 331
316 311 306 290 251 296 234 42 27 333 317 308 293 227 208 202 206 226 213 103 251 128 217 144 152 199 196 205 259 165 199 192 203 201 205 186 194 199 196 249 169 219 210 215 193 165 204 192 105 140 190 212 183 181 147 168 184 223 214 224 249 197 217 225 187 219 213 282 90 263 227 231 243 38 69 103 108 106 71 33 43 22 41 46 40 40 34 353
318 310 305 261 204 214 245 278 308 303 296 282 257 210 207 227 231 213 237 188 137 335 129 325 129 187 196 213 215 191 182 223 168 216 229 189 240 202 199 241 298 273 302 134 271 187 158 127 181 151 174 205 240 228 151 199 188 214 218 224 226 257 231 252 241 309 288 151 113 221 128 262 110 98 33 97 96 77 77 71 57 34 41 39 55 45 47 58
315 312 311 158 197 218 248 267 282 303 278 238 223 189 231 225 224 42 269 208 71 144 57 191 176 232 231 229 199 181 191 208 186 188 200 197 214 224 193 215 233 236 241 165 241 215 221 179 182 179 182 156 218 275 342 7 147 193 257 245 249 270 278 263 246 238 330 36 127 87 244 347 268 109 215 96 94 101 108 96 83 74 38 52 64 70 73 76
311 298 251 204 227 236 236 244 254 261 270 220 203 209 209 217 242 209 209 209 191 235 240 128 261 253 207 228 188 212 283 175 202 186 204 216 201 225 215 197 199 238 239 255 160 261 259 316 92 16 41 156 218 172 267 219 199 143 231 268 243 253 39 267 8 312 328 280 194 172 265 35 57 135 120 153 144 158 142 139 160 115 89 52 68 63 55 59
300 22 201 215 252 128 200 211 222 222 231 211 207 210 222 220 232 200 2 3 54 253 247 219 240 234 225 208 182 221 140 276 160 217 210 214 220 221 211 219 190 199 222 241 106 228 166 226 113 128 168 186 178 178 199 266 269 135 205 215 39 27 263 262 214 285 272 262 266 80 228 112 124 184 167 166 177 165 171 153 147 103 103 53 71 55 43 34
335 307 201 356 336 13 242 193 183 199 222 227 215 222 228 208 360 43 65 321 25 324 243 249 183 232 210 208 201 193 172 219 185 217 214 199 220 232 220 214 235 201 230 266 212 275 296 108 136 179 172 129 139 259 250 231 312 196 238 99 107 22 307 274 278 154 231 256 110 275 308 137 216 145 159 172 193 181 180 170 134 130 151 130 77 56 47 25
315 308 277 18 9 25 169 181 180 197 215 219 225 237 55 250 117 305 45 293 209 210 278 242 119 265 235 244 200 188 159 214 167 202 242 166 244 170 218 220 169 227 223 215 274 126 268 233 142 178 111 128 156 203 178 187 280 287 50 142 235 189 203 176 260 243 248 244 352 128 332 269 311 99 185 178 208 183 183 171 181 176 153 102 96 76 61 40
264 275 186 53 61 89 118 168 225 198 206 215 228 228 208 251 66 259 48 334 287 300 256 228 289 159 293 233 289 154 162 216 167 211 227 166 234 160 218 210 175 199 219 208 224 167 220 278 133 159 190 145 203 212 236 160 154 131 143 193 182 263 323 239 342 342 277 8 264 125 246 87 204 48 141 161 202 189 184 177 198 149 126 93 63 53 42 47
303 271 118 67 108 176 151 243 241 196 215 223 218 231 58 222 204 152 202 277 216 239 242 293 209 279 216 278 290 215 172 247 195 206 227 139 227 120 214 184 207 167 194 201 227 183 205 272 273 135 147 172 212 199 249 228 190 182 217 190 180 261 47 294 191 285 328 324 341 331 225 103 76 56 37 139 172 185 186 178 176 167 127 98 78 44 27 27
281 270 84 53 30 225 254 246 211 199 216 225 309 312 156 240 203 200 208 211 272 240 290 271 289 241 298 281 214 225 221 209 217 229 217 188 223 195 196 193 181 162 170 186 214 193 223 187 255 133 186 213 93 62 351 337 344 270 236 220 219 187 196 229 173 199 270 277 344 296 335 94 88 104 138 126 147 166 176 170 165 144 123 90 64 62 32 12
294 267 88 64 45 228 265 215 205 248 250 232 249 208 208 70 251 257 245 192 249 259 174 272 255 268 264 251 290 258 261 232 210 234 199 247 183 252 116 185 183 160 177 184 208 155 300 242 258 226 276 28 55 52 12 335 297 323 281 260 210 238 249 252 284 142 228 97 313 334 289 92 84 121 109 124 148 157 160 166 160 137 125 110 95 55 56 26
329 328 65 42 359 269 257 245 173 214 230 247 66 225 199 218 261 165 256 210 247 219 251 232 247 248 236 254 247 259 248 249 227 219 222 219 232 203 122 184 174 185 215 150 146 117 265 220 208 296 57 148 128 98 162 219 262 229 222 259 217 239 234 281 302 39 274 142 235 188 268 104 106 115 119 101 103 119 116 136 155 134 127 111 86 69 33 8
315 301 235 153 233 253 250 236 218 214 222 160 227 243 184 275 230 221 232 224 246 202 235 242 233 231 271 228 252 249 201 246 208 243 219 219 215 72 151 178 186 195 216 162 218 141 217 172 270 207 212 185 188 178 188 183 221 241 241 194 237 254 222 262 298 174 273 197 293 317 289 107 125 149 141 153 161 173 162 146 154 160 176 182 146 62 45 6
286 233 256 235 183 210 245 308 294 272 203 225 210 223 202 209 212 254 276 251 220 264 269 246 250 263 235 231 252 250 244 260 292 214 284 234 196 115 161 196 191 225 215 25 13 149 235 156 208 231 225 221 215 224 221 188 211 227 253 185 195 226 197 205 223 190 259 125 228 255 290 84 123 165 169 181 178 182 169 162 154 226 280 312 19 26 25 15
332 303 146 179 187 192 237 303 287 290 265 232 232 225 230 240 184 215 233 253 262 261 255 285 273 247 251 240 240 236 239 228 239 248 223 221 180 140 152 183 178 243 95 175 173 178 211 184 226 263 281 282 339 2 341 305 277 235 196 220 207 217 213 228 290 254 256 127 231 200 304 43 159 171 183 186 194 200 184 185 189 189 182 185 125 9 354 348
305 273 351 320 308 230 213 194 231 243 262 21 255 204 227 233 247 215 184 250 159 253 267 247 253 245 231 235 244 244 237 238 222 245 245 245 123 96 143 180 178 122 130 152 190 174 186 215 197 229 249 288 342 333 2 294 269 254 228 208 202 203 206 230 229 267 72 224 258 132 136 248 337 130 167 197 194 206 200 182 178 186 151 133 10 315 285 307
278 56 304 31 304 131 224 169 349 270 281 241 263 246 249 237 216 228 162 239 264 219 267 204 236 244 261 264 288 254 224 233 224 227 224 251 198 152 153 188 190 152 188 179 179 219 204 233 154 227 195 208 309 39 340 246 260 274 241 216 199 201 205 226 232 212 237 242 338 96 158 235 277 49 86 132 174 198 191 168 136 83 88 235 272 299 315 327
276 324 310 345 257 306 310 344 316 292 269 244 255 237 246 241 243 240 288 171 210 209 222 266 244 220 247 262 245 253 256 239 215 219 235 207 218 174 176 165 190 162 200 175 190 229 236 257 148 220 183 170 157 196 188 236 203 228 230 225 228 208 216 226 236 221 230 241 284 181 250 262 314 96 120 105 89 121 122 120 125 168 180 252 285 290 309 328
13 332 346 280 270 281 280 272 263 262 252 181 241 223 244 239 244 227 220 243 245 215 169 251 269 294 278 270 235 238 258 301 346 271 197 246 202 214 185 192 150 184 193 192 184 165 249 160 193 188 210 181 174 185 203 218 217 223 182 220 224 234 233 229 242 206 227 233 214 224 240 263 105 109 120 108 107 118 138 172 178 166 205 243 277 281 311 315
350 338 329 306 283 263 260 250 245 246 253 217 234 224 230 233 244 298 268 253 259 264 225 285 336 310 277 254 236 237 353 318 300 280 294 288 258 211 248 187 185 172 192 181 196 162 226 135 194 193 238 207 177 212 203 218 226 242 228 209 219 216 223 204 228 197 224 226 209 234 248 247 108 122 119 135 155 175 177 179 181 198 207 223 247 285 309 314
276 190 262 285 274 135 259 211 246 252 242 241 259 244 236 241 287 313 269 236 240 256 319 343 329 308 252 220 174 0 333 313 293 290 290 284 280 286 284 274 200 184 178 186 181 184 195 165 188 201 234 221 144 218 219 220 228 225 219 214 211 225 249 239 230 210 225 235 226 234 256 76 141 141 150 159 188 191 184 194 190 192 206 214 242 276 295 308